When you browse on this site, cookies collect data to enhance your experience and personalize the content and advertising you see.
Visit our Privacy Policy to learn more. By continuing to use the site, you agree to this use of cookies and data.
  • en France
  • Liste des pays
  • À 7 jours
  • Température de l'eau
  • Carte satellitaire
  • Carte météo
  • Widgets météo
  • user-avatar
    Se connecter

    Météo par heure à Mendoza

    Ce jour, 19 Janvier, Samedi

    Heure Température Précipitation Vent Pression Humidité
    00:00 +21°C° 0 mm 2 m/s 701 mmHg 45%
    01:00 +21°C° 0 mm 2 m/s 700 mmHg 47%
    02:00 +20°C° 0 mm 2 m/s 700 mmHg 50%
    03:00 +20°C° 0 mm 2 m/s 700 mmHg 52%
    04:00 +19°C° 0 mm 2 m/s 700 mmHg 55%
    05:00 +21°C° 0 mm 1 m/s 700 mmHg 52%
    06:00 +22°C° 0 mm 1 m/s 700 mmHg 49%
    07:00 +23°C° 0 mm 1 m/s 700 mmHg 46%
    08:00 +25°C° 0 mm 2 m/s 700 mmHg 42%
    09:00 +26°C° 0 mm 3 m/s 700 mmHg 39%
    10:00 +28°C° 0 mm 4 m/s 700 mmHg 35%
    11:00 +29°C° 0 mm 4 m/s 700 mmHg 34%
    12:00 +30°C° 0 mm 5 m/s 699 mmHg 32%
    13:00 +32°C° 0 mm 5 m/s 699 mmHg 31%
    14:00 +32°C° 0 mm 4 m/s 699 mmHg 30%
    15:00 +33°C° 0 mm 4 m/s 698 mmHg 29%
    16:00 +33°C° 0 mm 4 m/s 698 mmHg 29%
    17:00 +32°C° 0 mm 4 m/s 698 mmHg 30%
    18:00 +30°C° 0 mm 3 m/s 698 mmHg 32%
    19:00 +29°C° 0 mm 3 m/s 698 mmHg 34%
    20:00 +29°C° 0 mm 3 m/s 698 mmHg 36%
    21:00 +28°C° 0 mm 3 m/s 699 mmHg 38%
    22:00 +27°C° 0 mm 3 m/s 699 mmHg 40%
    23:00 +27°C° 0 mm 3 m/s 698 mmHg 42%

    Demain, 20 Janvier, Dimanche

    Heure Température Précipitation Vent Pression Humidité
    00:00 +26°C° 0 mm 3 m/s 698 mmHg 44%
    01:00 +25°C° 0 mm 2 m/s 697 mmHg 46%
    02:00 +25°C° 0 mm 2 m/s 697 mmHg 48%
    03:00 +24°C° 0 mm 3 m/s 697 mmHg 50%
    04:00 +24°C° 0 mm 3 m/s 697 mmHg 52%
    05:00 +25°C° 0 mm 3 m/s 697 mmHg 50%
    06:00 +25°C° 0 mm 4 m/s 697 mmHg 49%
    07:00 +26°C° 0 mm 4 m/s 697 mmHg 47%
    08:00 +27°C° 0 mm 4 m/s 697 mmHg 44%
    09:00 +29°C° 0 mm 5 m/s 697 mmHg 41%
    10:00 +30°C° 0 mm 5 m/s 697 mmHg 38%
    11:00 +32°C° 0 mm 4 m/s 696 mmHg 36%
    12:00 +33°C° 0 mm 4 m/s 696 mmHg 34%
    13:00 +34°C° 0 mm 4 m/s 696 mmHg 31%
    14:00 +35°C° 0 mm 4 m/s 695 mmHg 30%
    15:00 +35°C° 0 mm 4 m/s 695 mmHg 30%
    16:00 +35°C° 0 mm 3 m/s 695 mmHg 29%
    17:00 +34°C° 0 mm 3 m/s 695 mmHg 31%
    18:00 +32°C° 0 mm 2 m/s 695 mmHg 33%
    19:00 +31°C° 0 mm 2 m/s 696 mmHg 36%
    20:00 +30°C° 0 mm 2 m/s 696 mmHg 38%
    21:00 +30°C° 0 mm 2 m/s 697 mmHg 41%
    22:00 +29°C° 0 mm 1 m/s 697 mmHg 44%
    23:00 +28°C° 0 mm 2 m/s 697 mmHg 47%

    Après-demain, 21 Janvier, Lundi

    Heure Température Précipitation Vent Pression Humidité
    00:00 +28°C° 0 mm 2 m/s 697 mmHg 51%
    01:00 +27°C° 0 mm 2 m/s 697 mmHg 55%
    02:00 +26°C° 0 mm 2 m/s 697 mmHg 57%
    03:00 +26°C° 0 mm 1 m/s 697 mmHg 60%
    04:00 +25°C° 0 mm 1 m/s 697 mmHg 63%
    05:00 +26°C° 0 mm 2 m/s 698 mmHg 59%
    06:00 +27°C° 0 mm 3 m/s 698 mmHg 55%
    07:00 +27°C° 0 mm 4 m/s 699 mmHg 52%
    08:00 +29°C° 0 mm 4 m/s 699 mmHg 46%
    09:00 +30°C° 0 mm 4 m/s 699 mmHg 41%
    10:00 +33°C° 0 mm 3 m/s 699 mmHg 36%
    11:00 +34°C° 0 mm 4 m/s 699 mmHg 34%
    12:00 +35°C° 0 mm 4 m/s 698 mmHg 32%
    13:00 +36°C° 0 mm 4 m/s 698 mmHg 30%
    14:00 +36°C° 0 mm 5 m/s 697 mmHg 28%
    15:00 +36°C° 0 mm 5 m/s 696 mmHg 27%
    16:00 +36°C° 0 mm 5 m/s 696 mmHg 26%
    17:00 +35°C° 0 mm 4 m/s 696 mmHg 27%
    18:00 +34°C° 0 mm 4 m/s 696 mmHg 29%
    19:00 +33°C° 0 mm 3 m/s 696 mmHg 30%
    20:00 +33°C° 0 mm 3 m/s 697 mmHg 33%
    21:00 +31°C° 0 mm 3 m/s 697 mmHg 36%
    22:00 +30°C° 0 mm 2 m/s 697 mmHg 38%
    23:00 +30°C° 0 mm 2 m/s 696 mmHg 42%

    22 Janvier, Mardi

    Heure Température Précipitation Vent Pression Humidité
    00:00 +29°C° 0 mm 1 m/s 696 mmHg 46%
    01:00 +28°C° 0 mm 1 m/s 695 mmHg 51%
    02:00 +28°C° 0 mm 1 m/s 695 mmHg 52%
    03:00 +27°C° 0 mm 1 m/s 695 mmHg 53%
    04:00 +26°C° 0 mm 1 m/s 695 mmHg 54%
    05:00 +28°C° 0 mm 1 m/s 696 mmHg 50%
    06:00 +29°C° 0 mm 1 m/s 696 mmHg 47%
    07:00 +30°C° 0 mm 2 m/s 697 mmHg 43%
    08:00 +31°C° 0 mm 2 m/s 697 mmHg 41%
    09:00 +32°C° 0 mm 2 m/s 697 mmHg 39%
    10:00 +35°C° 0 mm 3 m/s 697 mmHg 36%
    11:00 +36°C° 0 mm 3 m/s 697 mmHg 34%
    12:00 +37°C° 0 mm 4 m/s 697 mmHg 32%
    13:00 +38°C° 0 mm 4 m/s 696 mmHg 31%
    14:00 +38°C° 0 mm 4 m/s 696 mmHg 30%
    15:00 +38°C° 0 mm 4 m/s 696 mmHg 29%
    16:00 +38°C° 0 mm 4 m/s 696 mmHg 29%
    17:00 +37°C° 0 mm 3 m/s 696 mmHg 30%
    18:00 +36°C° 0 mm 2 m/s 697 mmHg 31%
    19:00 +35°C° 0 mm 2 m/s 697 mmHg 33%
    20:00 +35°C° 0 mm 3 m/s 698 mmHg 31%
    21:00 +34°C° 0 mm 4 m/s 698 mmHg 30%
    22:00 +33°C° 0 mm 6 m/s 699 mmHg 29%
    23:00 +32°C° 0 mm 5 m/s 698 mmHg 29%

    23 Janvier, Mercredi

    Heure Température Précipitation Vent Pression Humidité
    00:00 +30°C° 0 mm 5 m/s 698 mmHg 29%
    01:00 +29°C° 0 mm 4 m/s 698 mmHg 30%
    02:00 +29°C° 0 mm 4 m/s 698 mmHg 31%
    03:00 +28°C° 0 mm 5 m/s 698 mmHg 32%
    04:00 +27°C° 0 mm 5 m/s 698 mmHg 33%
    05:00 +28°C° 0 mm 5 m/s 698 mmHg 30%
    06:00 +28°C° 0 mm 6 m/s 699 mmHg 27%
    07:00 +28°C° 0 mm 7 m/s 699 mmHg 24%
    08:00 +29°C° 0 mm 6 m/s 699 mmHg 24%
    09:00 +30°C° 0 mm 5 m/s 699 mmHg 24%
    10:00 +32°C° 0 mm 5 m/s 699 mmHg 24%
    11:00 +33°C° 0 mm 5 m/s 699 mmHg 24%
    12:00 +34°C° 0 mm 4 m/s 698 mmHg 24%
    13:00 +35°C° 0 mm 4 m/s 698 mmHg 24%
    14:00 +35°C° 0 mm 4 m/s 697 mmHg 25%
    15:00 +36°C° 0 mm 3 m/s 697 mmHg 25%
    16:00 +36°C° 0 mm 3 m/s 696 mmHg 25%
    17:00 +35°C° 0 mm 3 m/s 697 mmHg 27%
    18:00 +34°C° 0 mm 2 m/s 697 mmHg 28%
    19:00 +32°C° 0 mm 1 m/s 697 mmHg 30%
    20:00 +32°C° 0 mm 1 m/s 697 mmHg 32%
    21:00 +31°C° 0 mm 1 m/s 697 mmHg 33%
    22:00 +31°C° 0 mm 1 m/s 697 mmHg 35%
    23:00 +30°C° 0 mm 1 m/s 696 mmHg 36%

    24 Janvier, Jeudi

    Heure Température Précipitation Vent Pression Humidité
    00:00 +30°C° 0 mm 2 m/s 696 mmHg 37%
    01:00 +29°C° 0 mm 2 m/s 695 mmHg 38%
    02:00 +29°C° 0 mm 2 m/s 695 mmHg 40%
    03:00 +28°C° 0 mm 1 m/s 694 mmHg 41%
    04:00 +28°C° 0 mm 1 m/s 694 mmHg 42%
    05:00 +29°C° 0 mm 1 m/s 694 mmHg 40%
    06:00 +30°C° 0 mm 2 m/s 695 mmHg 38%
    07:00 +31°C° 0 mm 2 m/s 695 mmHg 36%
    08:00 +34°C° 0 mm 3 m/s 695 mmHg 34%
    09:00 +35°C° 0 mm 3 m/s 694 mmHg 33%
    10:00 +37°C° 0 mm 4 m/s 694 mmHg 31%
    11:00 +38°C° 0 mm 4 m/s 694 mmHg 31%
    12:00 +40°C° 0 mm 4 m/s 693 mmHg 31%
    13:00 +41°C° 0 mm 4 m/s 693 mmHg 31%
    14:00 +40°C° 0 mm 3 m/s 692 mmHg 31%
    15:00 +40°C° 0 mm 3 m/s 692 mmHg 31%
    16:00 +40°C° 0 mm 2 m/s 692 mmHg 31%
    17:00 +39°C° 0 mm 2 m/s 692 mmHg 33%
    18:00 +39°C° 0 mm 2 m/s 693 mmHg 35%
    19:00 +38°C° 0 mm 2 m/s 693 mmHg 36%
    20:00 +37°C° 0.3 mm 2 m/s 693 mmHg 38%
    21:00 +36°C° 0.3 mm 2 m/s 694 mmHg 40%
    22:00 +35°C° 0.3 mm 1 m/s 694 mmHg 42%
    23:00 +35°C° 0.2 mm 2 m/s 694 mmHg 42%
    Voir plus